• In Latvia
  • List of Countries
  • For 7 days
  • Water Temperature
  • Satellite Maps
  • Weather Map
  • Weather Widgets
  • user-avatar
    Login

    Hourly Weather Andora

    Today, 11 December, Monday

    Time Temperature Precipitation Wind Pressure Humidity
    00:00 +2°C° 0 mm 2 mps 606 mmHg 91%
    01:00 +1°C° 0.7 mm 3 mps 606 mmHg 91%
    02:00 0°C° 0.7 mm 4 mps 605 mmHg 91%
    03:00 0°C° 0.7 mm 5 mps 605 mmHg 92%
    04:00 0°C° 1 mm 5 mps 604 mmHg 92%
    05:00 0°C° 1 mm 4 mps 604 mmHg 92%
    06:00 0°C° 0 mm 4 mps 604 mmHg 93%
    07:00 0°C° 1.1 mm 4 mps 604 mmHg 94%
    08:00 0°C° 1.1 mm 4 mps 605 mmHg 95%
    09:00 0°C° 1.1 mm 4 mps 605 mmHg 95%
    10:00 +1°C° 0.7 mm 3 mps 605 mmHg 93%
    11:00 0°C° 0.7 mm 3 mps 606 mmHg 91%
    12:00 0°C° 0.7 mm 3 mps 606 mmHg 89%
    13:00 0°C° 0.5 mm 3 mps 606 mmHg 88%
    14:00 -1°C° 0.5 mm 3 mps 607 mmHg 87%
    15:00 -1°C° 0.5 mm 2 mps 607 mmHg 86%
    16:00 -2°C° 0.1 mm 2 mps 607 mmHg 88%
    17:00 0°C° 0.1 mm 1 mps 608 mmHg 90%
    18:00 -1°C° 0.1 mm 1 mps 609 mmHg 93%
    19:00 -1°C° 0.1 mm 1 mps 609 mmHg 92%
    20:00 -2°C° 0.1 mm 1 mps 610 mmHg 92%
    21:00 -2°C° 0.1 mm 1 mps 611 mmHg 92%
    22:00 -2°C° 0 mm 1 mps 611 mmHg 92%
    23:00 -2°C° 0 mm 1 mps 612 mmHg 92%

    Tomorrow, 12 December, Tuesday

    Time Temperature Precipitation Wind Pressure Humidity
    00:00 -3°C° 0 mm 1 mps 612 mmHg 91%
    01:00 -3°C° 0 mm 1 mps 613 mmHg 91%
    02:00 -4°C° 0 mm 1 mps 613 mmHg 90%
    03:00 -4°C° 0 mm 1 mps 614 mmHg 90%
    04:00 -4°C° 0 mm 1 mps 615 mmHg 90%
    05:00 -4°C° 0 mm 1 mps 615 mmHg 90%
    06:00 -4°C° 0 mm 1 mps 616 mmHg 91%
    07:00 -3°C° 0.2 mm 1 mps 617 mmHg 89%
    08:00 -2°C° 0.2 mm 1 mps 618 mmHg 87%
    09:00 -2°C° 0.2 mm 1 mps 619 mmHg 85%
    10:00 -3°C° 0 mm 2 mps 620 mmHg 80%
    11:00 -2°C° 0 mm 2 mps 621 mmHg 76%
    12:00 -1°C° 0 mm 2 mps 621 mmHg 72%
    13:00 -2°C° 0 mm 2 mps 622 mmHg 72%
    14:00 -2°C° 0 mm 2 mps 622 mmHg 72%
    15:00 -2°C° 0 mm 2 mps 622 mmHg 73%
    16:00 -4°C° 0 mm 2 mps 622 mmHg 76%
    17:00 -6°C° 0 mm 2 mps 622 mmHg 80%
    18:00 -8°C° 0 mm 2 mps 622 mmHg 83%
    19:00 -8°C° 0 mm 2 mps 622 mmHg 76%
    20:00 -8°C° 0 mm 2 mps 623 mmHg 69%
    21:00 -9°C° 0 mm 2 mps 623 mmHg 62%
    22:00 -9°C° 0 mm 2 mps 623 mmHg 57%
    23:00 -9°C° 0 mm 2 mps 623 mmHg 52%

    Day after tomorrow, 13 December, Wednesday

    Time Temperature Precipitation Wind Pressure Humidity
    00:00 -8°C° 0 mm 1 mps 623 mmHg 47%
    01:00 -8°C° 0 mm 1 mps 623 mmHg 46%
    02:00 -8°C° 0 mm 1 mps 624 mmHg 45%
    03:00 -7°C° 0 mm 1 mps 624 mmHg 45%
    04:00 -7°C° 0 mm 1 mps 624 mmHg 47%
    05:00 -7°C° 0 mm 1 mps 624 mmHg 50%
    06:00 -7°C° 0 mm 1 mps 624 mmHg 53%
    07:00 -4°C° 0 mm 1 mps 625 mmHg 53%
    08:00 -3°C° 0 mm 1 mps 625 mmHg 52%
    09:00 -1°C° 0 mm 1 mps 626 mmHg 52%
    10:00 0°C° 0 mm 1 mps 626 mmHg 53%
    11:00 +2°C° 0 mm 1 mps 627 mmHg 54%
    12:00 +4°C° 0 mm 1 mps 627 mmHg 54%
    13:00 +4°C° 0 mm 1 mps 627 mmHg 58%
    14:00 +3°C° 0 mm 1 mps 626 mmHg 61%
    15:00 +3°C° 0 mm 1 mps 626 mmHg 64%
    16:00 +2°C° 0 mm 1 mps 625 mmHg 67%
    17:00 +1°C° 0 mm 1 mps 625 mmHg 70%
    18:00 0°C° 0 mm 1 mps 624 mmHg 74%
    19:00 0°C° 0 mm 1 mps 624 mmHg 73%
    20:00 0°C° 0 mm 1 mps 624 mmHg 73%
    21:00 0°C° 0 mm 1 mps 624 mmHg 73%
    22:00 +1°C° 0.3 mm 1 mps 624 mmHg 74%
    23:00 +1°C° 0.3 mm 1 mps 624 mmHg 75%

    14 December, Thursday

    Time Temperature Precipitation Wind Pressure Humidity
    00:00 +2°C° 0.3 mm 1 mps 624 mmHg 77%
    01:00 +2°C° 0.3 mm 1 mps 623 mmHg 79%
    02:00 +2°C° 0.3 mm 1 mps 623 mmHg 82%
    03:00 +2°C° 0.3 mm 1 mps 623 mmHg 84%
    04:00 +2°C° 0.2 mm 1 mps 623 mmHg 86%
    05:00 +3°C° 0.2 mm 1 mps 623 mmHg 88%
    06:00 +3°C° 0.2 mm 1 mps 623 mmHg 90%
    07:00 +3°C° 0.2 mm 1 mps 623 mmHg 89%
    08:00 +4°C° 0.2 mm 1 mps 623 mmHg 88%
    09:00 +4°C° 0.2 mm 1 mps 623 mmHg 87%
    10:00 +5°C° 0.2 mm 1 mps 623 mmHg 87%
    11:00 +5°C° 0.2 mm 1 mps 623 mmHg 86%
    12:00 +5°C° 0.2 mm 1 mps 623 mmHg 85%
    13:00 +6°C° 0.1 mm 1 mps 623 mmHg 85%
    14:00 +6°C° 0.1 mm 1 mps 622 mmHg 85%
    15:00 +6°C° 0.1 mm 1 mps 622 mmHg 86%
    16:00 +5°C° 0 mm 1 mps 621 mmHg 88%
    17:00 +4°C° 0 mm 1 mps 621 mmHg 91%
    18:00 +3°C° 0 mm 1 mps 620 mmHg 93%
    19:00 +3°C° 0.1 mm 1 mps 620 mmHg 93%
    20:00 +3°C° 0.1 mm 1 mps 620 mmHg 93%
    21:00 +3°C° 0.1 mm 1 mps 620 mmHg 93%
    22:00 +3°C° 0.8 mm 1 mps 620 mmHg 94%
    23:00 +3°C° 0.8 mm 1 mps 619 mmHg 95%

    15 December, Friday

    Time Temperature Precipitation Wind Pressure Humidity
    00:00 +3°C° 0.8 mm 1 mps 619 mmHg 96%
    01:00 +2°C° 0.9 mm 1 mps 619 mmHg 96%
    02:00 +2°C° 0.9 mm 1 mps 618 mmHg 96%
    03:00 +1°C° 0.9 mm 2 mps 618 mmHg 95%
    04:00 -1°C° 0 mm 2 mps 618 mmHg 94%
    05:00 -2°C° 0 mm 2 mps 617 mmHg 94%
    06:00 -2°C° 0 mm 2 mps 617 mmHg 93%
    07:00 -2°C° 0.4 mm 2 mps 618 mmHg 92%
    08:00 -2°C° 0.4 mm 2 mps 618 mmHg 91%
    09:00 -1°C° 0.4 mm 2 mps 619 mmHg 90%
    10:00 -1°C° 0.2 mm 3 mps 619 mmHg 85%
    11:00 0°C° 0.2 mm 3 mps 619 mmHg 80%
    12:00 +1°C° 0.2 mm 3 mps 619 mmHg 75%
    13:00 0°C° 0 mm 3 mps 619 mmHg 73%
    14:00 0°C° 0 mm 3 mps 619 mmHg 72%
    15:00 -1°C° 0 mm 3 mps 619 mmHg 70%
    16:00 -2°C° 0.1 mm 3 mps 619 mmHg 74%
    17:00 -4°C° 0.1 mm 3 mps 619 mmHg 77%
    18:00 -4°C° 0.1 mm 2 mps 619 mmHg 81%
    19:00 -4°C° 0 mm 2 mps 620 mmHg 82%
    20:00 -5°C° 0 mm 2 mps 620 mmHg 83%
    21:00 -5°C° 0 mm 2 mps 620 mmHg 83%
    22:00 -5°C° 0 mm 2 mps 621 mmHg 83%
    23:00 -6°C° 0 mm 2 mps 621 mmHg 83%

    16 December, Saturday

    Time Temperature Precipitation Wind Pressure Humidity
    00:00 -6°C° 0 mm 2 mps 621 mmHg 83%
    01:00 -7°C° 0 mm 2 mps 621 mmHg 82%
    02:00 -7°C° 0 mm 2 mps 621 mmHg 81%
    03:00 -7°C° 0 mm 2 mps 621 mmHg 80%
    04:00 -8°C° 0 mm 2 mps 621 mmHg 77%
    05:00 -8°C° 0 mm 2 mps 621 mmHg 73%
    06:00 -8°C° 0 mm 2 mps 621 mmHg 70%
    07:00 -7°C° 0 mm 2 mps 622 mmHg 67%
    08:00 -6°C° 0 mm 2 mps 623 mmHg 64%
    09:00 -5°C° 0 mm 2 mps 623 mmHg 62%
    10:00 -4°C° 0 mm 2 mps 624 mmHg 58%
    11:00 -2°C° 0 mm 2 mps 625 mmHg 54%
    12:00 -1°C° 0 mm 2 mps 625 mmHg 51%
    13:00 -1°C° 0 mm 2 mps 625 mmHg 54%
    14:00 -1°C° 0 mm 2 mps 625 mmHg 56%
    15:00 -2°C° 0 mm 2 mps 624 mmHg 59%
    16:00 -3°C° 0 mm 2 mps 624 mmHg 63%
    17:00 -5°C° 0 mm 2 mps 624 mmHg 68%
    18:00 -6°C° 0 mm 2 mps 624 mmHg 72%
    19:00 -6°C° 0 mm 2 mps 624 mmHg 71%
    20:00 -6°C° 0 mm 2 mps 624 mmHg 70%
    21:00 -6°C° 0 mm 2 mps 624 mmHg 69%
    22:00 -6°C° 0 mm 2 mps 624 mmHg 69%
    23:00 -4°C° 0 mm 1 mps 624 mmHg 69%
    Show more